This is the latest recevied weather packets stored in our database for station/object CE7LGA-10. If no packets are shown the sender has not sent any weather packets the latest 10 day(s).
| Time | Temp. | Humidity | Pressure | Rain* | Wind** | Luminosity | Snow |
|---|---|---|---|---|---|---|---|
| 1777791128 | 13.89° C | 68% | 1000.9 hPa | - | - | - | - |
| 1777790232 | 13.89° C | 67% | 1001 hPa | - | - | - | - |
| 1777789332 | 13.89° C | 67% | 1000.8 hPa | - | - | - | - |
| 1777788432 | 13.89° C | 66% | 1000.8 hPa | - | - | - | - |
| 1777787531 | 14.44° C | 66% | 1000.9 hPa | - | - | - | - |
| 1777786631 | 14.44° C | 66% | 1001.3 hPa | - | - | - | - |
| 1777785731 | 15° C | 66% | 1001.1 hPa | - | - | - | - |
| 1777784831 | 15° C | 64% | 1001.2 hPa | - | - | - | - |
| 1777783931 | 16.11° C | 67% | 1001.5 hPa | - | - | - | - |
| 1777783031 | 16.67° C | 67% | 1001.7 hPa | - | - | - | - |
| 1777782131 | 16.67° C | 70% | 1001.9 hPa | - | - | - | - |
| 1777781231 | 16.67° C | 71% | 1001.8 hPa | - | - | - | - |
| 1777780331 | 17.22° C | 72% | 1002.1 hPa | - | - | - | - |
| 1777779431 | 16.67° C | 71% | 1002.8 hPa | - | - | - | - |
| 1777778531 | 16.67° C | 70% | 1003.2 hPa | - | - | - | - |
| 1777777631 | 17.22° C | 69% | 1003.5 hPa | - | - | - | - |
| 1777776730 | 17.22° C | 70% | 1003.4 hPa | - | - | - | - |
| 1777775830 | 16.67° C | 70% | 1003.5 hPa | - | - | - | - |
| 1777774930 | 16.67° C | 69% | 1003.2 hPa | - | - | - | - |
| 1777774030 | 16.11° C | 67% | 1004 hPa | - | - | - | - |
| 1777773130 | 15.56° C | 70% | 1003.3 hPa | - | - | - | - |
| 1777772230 | 15° C | 70% | 1003.5 hPa | - | - | - | - |
| 1777771329 | 15° C | 67% | 1003.8 hPa | - | - | - | - |
| 1777770429 | 15° C | 67% | 1004 hPa | - | - | - | - |
| 1777769529 | 15.56° C | 66% | 1004.2 hPa | - | - | - | - |
* Rain since midnight (hover to see other rain measurements)
** Current wind speed in m/s (hover to see current wind gust speed)